Lid_Strength_Index
-0 2 2 4 9 11 13 11 8 10 9 6 5 7 8 7 8 12 2 0 -0 0 -0 -1 -1 -1 -1 -1 -1 -1 -1 -1 -1 -1 -1 -1 -1 -1 -1 -1 -1 -1 -1 -1 -1 -1 -1 -1 -1
4 4 4 6 11 14 13 10 10 9 7 5 5 6 7 8 4 4 3 0 -0 -0 0 -0 -1 -1 -1 -1 -1 -2 -1 -1 -1 -1 -1 -1 -1 -1 -1 -1 -1 -1 -1 -1 -1 -1 -1 -1 -1
2 4 6 8 12 13 12 9 9 7 6 6 7 5 6 7 4 3 1 0 -0 0 0 -0 -1 -2 -2 -1 -2 -2 -2 -2 -1 -1 -1 -1 -1 -1 -1 -1 -1 -1 -1 -1 -1 -1 -1 -1 -1
4 6 6 10 12 10 9 8 7 7 6 5 6 8 4 2 3 2 1 0 0 0 0 -1 -2 -2 -2 -2 -2 -2 -2 -2 -2 -1 -1 -1 -1 -1 -1 -1 -1 -1 -1 -1 -1 -1 -1 -1 -1
5 7 10 12 12 9 8 8 6 8 7 7 6 8 7 3 1 1 1 1 0 0 0 -0 -2 -2 -2 -2 -2 -2 -2 -2 -1 -1 -1 -1 -2 -2 -2 -2 -1 -1 -1 -1 -1 -1 -1 -1 -1
9 8 12 12 11 8 8 6 6 7 6 6 7 7 6 2 2 1 0 1 -0 0 0 -0 -1 -2 -2 -2 -2 -2 -2 -2 -2 -2 -2 -2 -2 -2 -2 -2 -2 -1 -2 -2 -1 -2 -2 -2 -2
10 10 11 12 11 9 9 6 7 7 7 7 5 8 5 3 2 1 1 0 0 -0 0 0 0 -1 -2 -2 -2 -2 -2 -2 -2 -2 -2 -2 -2 -2 -2 -2 -2 -2 -2 -2 -2 -2 -2 -2 -2
9 8 12 11 12 11 9 8 5 6 7 4 4 8 8 4 2 2 1 1 1 0 0 0 0 -0 -0 -0 -2 -2 -2 -2 -2 -2 -2 -2 -1 -1 -2 -1 -1 -2 -2 -2 -2 -2 -2 -2 -2
6 10 12 10 10 9 7 8 7 4 6 5 4 5 3 2 2 3 2 2 1 1 1 1 1 0 0 -0 -1 -2 -2 -2 -2 -2 -2 -1 -1 -1 -1 -2 -2 -2 -2 -2 -3 -3 -3 -3 -2
9 11 9 7 7 8 7 6 6 6 6 6 5 3 2 2 3 3 3 4 3 2 2 1 1 1 0 -0 0 0 -0 -0 -0 -0 -0 1 0 -0 -1 -3 -4 -3 -3 -2 -3 -4 -4 -3 -1
9 11 7 6 6 7 8 8 7 7 8 6 6 5 3 3 3 3 3 3 3 2 4 4 2 3 2 4 1 1 0 0 1 0 1 1 0 1 1 0 1 1 -1 -1 0 1 -0 1 0
10 9 8 7 7 7 8 7 7 7 6 4 4 3 4 4 4 3 3 4 3 2 4 4 2 2 2 1 1 2 3 2 1 1 1 1 1 1 1 2 1 1 1 2 2 2 1 0 -0
10 9 8 7 7 7 6 7 6 7 4 3 3 4 4 4 4 3 2 2 3 3 3 2 2 3 2 1 1 1 2 1 1 1 1 1 1 1 1 2 2 1 2 2 3 2 2 2 1
8 9 8 8 8 8 6 7 6 6 5 4 4 5 4 4 4 3 3 3 3 2 3 1 1 1 1 2 2 1 2 1 2 1 1 1 2 2 1 2 2 2 2 2 3 2 2 2 2
9 10 10 10 8 8 6 8 7 6 5 5 5 5 4 4 3 3 2 2 2 2 1 2 1 1 2 2 1 2 2 0 2 2 1 1 1 1 1 2 2 2 2 2 3 2 2 2 2
10 12 13 10 7 7 8 11 8 5 5 6 6 5 5 5 4 3 2 2 1 2 2 2 0 1 1 1 2 1 1 2 1 1 2 1 1 1 2 2 2 1 2 2 2 2 3 3 3
12 14 13 10 8 7 9 11 7 6 6 7 6 6 6 6 4 3 2 2 2 2 2 2 1 2 1 1 1 2 2 2 2 2 2 1 -0 0 1 1 2 2 3 3 2 1 3 2 3
14 13 12 11 9 9 11 11 9 7 6 7 7 6 6 5 5 3 2 2 2 2 2 2 2 2 2 2 1 2 3 4 4 4 4 3 2 -0 1 1 1 1 2 2 2 3 3 2 1
10 10 11 10 9 10 12 11 9 8 7 8 7 7 6 5 4 3 2 3 2 2 2 2 2 2 2 2 3 4 5 5 3 2 0 1 1 1 2 2 2 1 2 2 2 2 3 3 2
10 11 11 10 9 11 11 11 9 8 8 7 7 7 6 6 5 4 3 4 4 2 3 2 2 3 3 4 4 5 5 4 2 2 2 1 1 1 1 2 2 2 2 2 2 3 3 3 2
11 11 11 11 10 10 11 12 9 8 7 7 6 6 6 6 5 4 4 4 3 2 2 2 3 4 5 4 4 4 3 3 3 3 3 2 1 1 1 1 2 2 2 3 3 3 2 3 3
12 9 9 9 11 14 11 16 12 10 9 7 8 7 6 5 5 4 4 5 3 2 2 2 3 4 4 3 3 3 4 4 4 3 3 3 2 2 1 2 2 2 3 3 2 1 1 2 5
10 8 9 9 12 13 13 15 13 10 10 9 8 7 6 6 5 5 4 3 3 3 3 3 3 3 2 2 3 3 4 3 3 3 3 4 3 2 2 2 3 3 3 3 2 3 5 5 5
7 10 11 11 14 16 14 13 13 12 10 10 8 7 6 6 5 4 4 3 3 4 4 3 3 3 3 3 3 4 4 4 4 4 4 4 4 4 3 3 3 3 3 4 4 4 4 4 4
10 12 15 16 16 16 13 13 13 11 9 9 9 6 6 5 5 5 5 6 6 4 4 4 4 4 3 4 4 4 4 4 4 4 5 5 5 5 4 4 4 4 4 3 3 5 5 5 4
11 12 15 19 18 16 12 15 13 9 8 8 8 7 6 6 6 5 5 6 6 5 5 5 5 5 5 5 4 4 4 4 4 4 5 5 5 3 3 3 4 4 4 5 5 5 5 5 4
11 13 11 14 14 16 14 12 9 9 8 8 8 7 8 7 6 7 6 6 6 6 5 5 6 5 5 5 4 5 4 4 4 5 5 3 3 3 3 3 4 4 4 3 4 4 4 5 5
10 9 13 14 18 19 15 14 13 10 10 9 9 9 8 8 7 6 6 6 6 6 6 6 6 5 5 5 5 5 4 4 4 4 4 4 4 4 4 4 4 4 3 3 3 4 4 4 4
10 12 12 13 14 17 18 15 10 10 9 9 9 8 8 8 8 7 6 6 6 6 6 6 6 5 5 5 6 5 4 5 4 5 5 4 4 4 4 4 3 3 3 3 3 4 4 4 4
9 11 13 15 15 14 15 14 9 9 9 8 8 8 8 8 8 7 6 6 6 6 6 6 5 4 5 5 6 6 5 4 4 6 4 4 5 5 4 4 4 3 3 3 3 4 4 4 5